Location: Kerb�bon
(47.7970°N, 3.3487°W)
Time: 11:41:21
(UTC+00:00)

Cosmos 1633 Rocket - Pass Details

Date: 12 May 2021
Orbit: 608 x 622 km, 82.5° (Epoch: 18 June)

Event Time Altitude Azimuth Distance (km) Brightness Sun altitude
Rises 20:48:45 0° 349° (N) 2,902 7.4 -10.0°
Reaches altitude 10° 20:50:59 10° 349° (NNW) 1,994 6.5 -10.3°
Maximum altitude 20:55:24 81° 264° (W) 634 3.2 -10.9°
Drops below altitude 10° 20:59:48 10° 176° (S) 1,984 5.2 -11.4°
Enters shadow 21:00:08 - 176° (S) 2,113 5.3 -11.4°
